Location: Munkebjergskolens Observatorium
(55.3864°N, 10.3987°E)
Time: 04:14:15
(UTC+02:00)

KKS-1 - Pass Details

Date: 04 April 2023
Orbit: 633 x 644 km, 98.2° (Epoch: 31 May)

Event Time Altitude Azimuth Distance (km) Brightness Sun altitude
Rises 01:03:30 0° 11° (N) 2,946 ? -29.0°
Reaches altitude 10° 01:05:50 10° 3° (N) 2,033 ? -29.0°
Enters shadow 01:09:29 35° 309° (NW) 1,031 ? -29.1°
